Skip to main content Skip to accessibility
This website is not compatible with your web browser. You should install a newer browser. If you live in Jersey and need help upgrading call the States of Jersey web team on 440099.
Homegov.je

L'înformâtion et les sèrvices publyis pouor I'Île dé Jèrri

  • Choose the service you want to log in to:

  • gov.je

    Update your notification preferences

  • one.gov.je

    Access government and parish services

  • CAESAR

    Clear goods through customs or claim relief

  • Talentlink

    View or update your States of Jersey job application

Local METARs

METAR EGJJ 211750Z 30005KT 250V330 9999 FEW008 19/17 Q1020

METAR EGJB 211750Z 30005KT 9999 FEW001 SCT003 BKN004 18/17 Q1019

METAR EGJA 211720Z 26008KT 9999 FEW001 BKN002 17/17 Q1020

METAR LFRD 211800Z AUTO 01005KT CAVOK 20/16 Q1019 BECMG 3000 BR BKN003

METAR LFRC 211800Z AUTO 29008KT 260V320 9999 SCT022 18/16 Q1019

 

 

 

​Times are in Greenwich Mean Time (GMT) and not British Summer Time (BST). They will be one hour different during BST.

Back to top
rating button